RH
2 2 3 6 12 19 35 50 48 48 46 46 42 42 47 44 44 44 50 48 47 43 40 36 34 34 36 39 42 46 49 57 79 81 66 59 42 53 75 81 72 62 52 43 42 36 28 29 35
2 3 6 10 14 22 43 50 53 51 52 50 50 49 48 44 40 46 44 39 34 28 24 21 20 20 20 21 24 27 33 42 47 54 84 77 64 51 62 70 70 75 65 54 46 39 31 34 37
3 4 6 9 15 28 45 54 56 56 55 55 53 50 44 40 40 37 30 23 20 18 15 13 11 10 10 10 11 14 17 20 24 38 47 60 84 69 60 64 70 73 74 66 56 50 38 35 40
3 8 11 19 22 34 49 55 57 51 53 51 49 47 44 36 29 23 20 17 15 14 13 11 9 9 9 9 8 7 7 10 14 18 20 32 49 80 79 74 70 72 76 70 65 56 54 41 37
3 4 14 20 29 38 52 52 50 52 55 48 44 43 37 26 21 17 15 15 15 12 10 9 8 8 9 8 8 8 8 9 8 8 13 17 19 38 68 82 75 76 82 77 66 64 54 46 42
4 8 16 23 34 45 50 50 49 51 46 40 40 33 26 18 14 14 13 11 10 10 10 8 7 4 3 3 3 4 5 6 7 9 9 9 12 16 24 48 83 80 81 81 84 76 60 49 50
10 11 20 30 39 46 47 47 44 41 37 33 28 24 17 13 13 11 10 11 11 9 4 2 1 1 1 1 1 1 1 1 1 2 5 7 9 8 12 16 30 79 80 83 84 94 89 53 50
12 16 21 35 41 44 48 48 42 36 29 24 17 15 13 12 11 13 16 13 5 2 2 1 1 1 1 1 1 1 1 1 1 1 1 2 4 8 9 10 12 21 69 90 95 99 94 84 52
14 21 26 33 41 41 47 44 36 26 19 15 12 12 11 11 13 10 5 2 2 2 2 2 2 2 2 2 2 2 2 2 2 1 1 1 1 2 4 10 11 11 16 52 97 98 100 89 77
18 21 32 40 44 44 43 34 25 20 16 12 10 9 7 6 4 4 3 2 2 2 2 3 3 3 3 3 3 3 3 3 3 2 2 2 1 1 1 2 8 11 11 12 40 98 82 100 98
18 24 39 47 44 33 27 26 21 15 11 10 8 5 4 4 4 3 2 2 3 3 3 4 4 4 4 4 4 4 4 4 4 3 3 3 2 2 2 1 2 9 12 11 11 39 98 99 100
26 38 40 38 29 25 23 20 14 13 9 6 4 3 4 3 3 2 2 3 3 3 4 4 4 4 5 5 5 5 5 5 4 4 4 4 3 3 2 2 2 4 11 12 11 10 21 97 100
24 32 27 25 23 23 20 15 10 8 5 4 3 3 3 2 2 2 3 3 3 4 4 5 5 5 5 5 5 5 6 5 5 5 4 4 4 3 3 2 2 2 5 13 11 9 9 14 99
25 25 24 24 20 16 15 11 8 5 5 4 4 3 3 2 2 3 3 3 4 4 5 6 6 6 6 6 6 6 6 6 6 5 5 4 3 3 2 2 2 2 4 7 12 9 6 6 30
28 24 32 32 27 19 14 11 8 6 5 5 4 3 3 3 3 3 3 3 4 5 6 6 6 6 7 7 6 7 7 7 6 5 4 3 2 2 2 2 2 2 8 6 8 8 8 6 6
31 30 34 38 34 22 19 10 8 6 7 8 5 4 3 3 3 3 3 4 5 6 6 5 5 6 7 7 7 7 7 7 6 4 3 3 4 7 8 10 13 12 17 10 6 5 5 6 4
34 36 36 38 36 31 19 12 8 6 8 11 10 7 4 4 3 3 4 4 5 6 5 4 4 6 7 7 7 7 7 6 4 4 4 7 13 19 20 17 20 23 21 15 10 4 4 4 4
31 35 35 37 36 36 21 19 10 8 9 11 15 16 11 5 4 4 4 4 5 6 5 4 4 5 7 8 7 7 6 5 5 8 12 16 19 14 9 8 10 17 21 19 8 5 4 4 4
28 31 34 35 28 32 29 33 24 12 12 16 20 20 16 12 6 4 4 4 5 6 5 4 4 5 7 8 7 7 6 5 7 14 18 19 14 9 9 10 8 12 17 15 5 6 5 3 4
26 32 34 29 26 27 35 32 31 22 16 16 20 24 25 19 8 5 4 4 6 6 5 4 4 5 8 8 7 7 6 5 9 16 20 15 10 11 13 12 9 8 12 8 6 6 4 3 3
28 30 32 28 29 32 39 38 30 26 18 13 17 24 30 33 15 6 4 5 6 6 5 4 4 6 8 8 8 7 6 6 8 17 21 14 11 16 18 17 10 7 8 6 6 6 4 6 5
29 37 35 30 34 35 34 38 18 25 17 11 14 25 34 35 22 7 5 6 8 6 5 4 4 6 8 8 8 7 6 5 9 18 23 15 12 20 24 24 14 8 8 7 7 6 4 8 17
32 35 34 32 42 46 37 38 11 10 10 10 15 27 34 39 25 9 6 9 9 6 6 5 4 6 8 8 8 8 7 6 10 17 23 18 15 25 32 33 20 10 8 8 8 7 6 7 18
33 34 38 44 47 58 42 44 12 9 9 12 15 22 31 29 24 9 7 11 8 7 7 6 4 7 8 8 8 8 7 6 9 13 21 22 16 27 37 40 31 14 10 8 8 7 6 7 15
36 38 62 59 67 60 65 56 14 17 18 14 14 16 22 23 22 9 10 12 9 10 9 7 5 7 8 7 8 8 8 7 9 12 20 25 17 28 38 44 42 25 14 9 8 7 8 8 13
43 38 31 44 58 49 62 72 21 10 10 10 11 12 14 17 13 10 13 12 15 15 13 8 6 8 8 7 8 9 8 7 10 14 21 25 20 33 42 48 49 40 22 13 10 8 8 9 14
50 51 39 44 60 66 40 23 10 7 9 8 6 8 10 10 10 11 14 20 19 19 15 10 6 9 9 8 8 9 9 7 10 15 22 24 22 35 45 50 52 51 37 18 11 9 10 14 20
42 40 50 42 63 51 29 12 4 4 4 4 5 6 8 8 11 15 19 26 21 22 15 11 8 10 9 8 8 10 9 7 10 16 22 25 20 37 48 53 56 59 51 31 17 12 13 20 25
41 51 42 45 30 46 45 16 3 4 4 5 5 6 7 10 12 17 27 24 20 21 14 12 10 11 9 9 9 10 9 7 11 17 23 25 21 39 49 53 57 64 62 49 27 15 16 24 27
47 35 43 28 27 29 22 7 4 4 4 5 6 7 9 11 14 23 25 20 18 18 15 13 12 12 10 10 10 10 9 7 11 17 24 24 21 38 49 55 58 67 73 66 41 22 15 22 22
Wind_Speed
5 5 4 3 4 2 10 8 12 9 9 10 6 4 5 2 3 2 10 13 16 18 19 20 21 22 22 23 22 22 23 22 21 26 27 29 29 30 30 29 27 24 22 21 19 18 19 18 19
6 6 5 5 4 3 7 12 12 10 5 2 2 1 3 6 6 6 10 14 17 19 21 23 24 25 24 24 26 26 26 27 27 25 27 31 31 31 31 31 31 28 25 24 22 20 20 20 21
6 6 7 5 3 7 10 13 11 7 5 4 2 2 5 5 7 10 12 15 19 21 24 25 25 26 27 27 25 25 27 28 28 30 29 27 33 34 34 33 33 31 29 27 26 24 22 22 22
8 7 6 3 7 8 11 12 10 5 2 2 1 2 2 5 8 11 15 18 21 23 25 27 28 28 27 26 26 27 26 26 30 30 30 31 31 34 39 35 36 35 34 31 30 30 27 25 25
9 9 6 6 8 12 10 7 4 2 1 1 2 2 5 7 8 12 14 16 18 21 23 24 25 26 27 27 26 25 25 25 26 28 31 33 33 34 34 42 40 38 37 36 34 35 31 29 27
6 6 4 10 14 14 12 9 6 5 3 2 2 3 5 6 9 10 12 15 17 21 23 25 26 26 27 27 27 27 26 24 25 26 27 29 33 34 36 36 43 41 40 40 39 37 33 32 30
7 5 4 15 17 16 13 11 7 5 2 1 2 3 4 7 7 9 11 15 19 22 24 26 26 26 26 26 26 25 24 25 25 25 27 29 28 32 35 36 39 42 45 43 43 40 37 34 34
8 7 11 13 18 16 13 9 7 3 1 2 3 1 3 4 6 8 11 14 17 19 20 20 20 22 23 24 25 26 27 27 27 26 26 27 30 31 32 33 37 40 43 47 45 44 43 39 38
6 6 12 15 16 11 12 6 6 4 1 2 3 4 5 6 8 10 11 13 15 17 18 20 22 23 25 26 27 28 28 29 30 29 29 28 28 30 33 34 34 36 41 43 51 44 46 48 43
5 5 13 15 10 13 11 7 4 5 5 5 6 7 9 10 9 8 9 12 13 14 19 22 24 26 29 31 31 32 32 32 32 31 30 31 30 29 30 33 35 34 35 40 43 54 55 45 51
4 9 17 18 13 9 8 9 7 6 7 9 10 11 10 9 7 9 10 11 17 21 23 25 30 33 35 36 38 38 38 38 38 37 36 34 34 34 33 32 34 36 35 36 38 47 62 62 40
10 17 13 18 13 10 7 8 10 10 11 12 12 12 10 10 9 10 13 17 19 22 27 30 33 34 36 39 40 41 41 41 41 42 42 41 38 36 36 36 35 37 38 36 39 39 47 56 50
6 21 19 17 13 10 8 10 10 13 13 13 12 12 11 11 12 14 16 18 21 25 27 30 32 35 38 39 40 42 43 44 45 46 46 45 43 40 38 37 38 37 39 40 37 40 41 42 49
20 21 20 17 14 12 6 12 9 14 14 13 12 12 12 12 13 15 16 19 21 24 28 32 35 36 37 39 40 42 45 46 47 47 48 48 47 45 42 41 39 40 38 40 41 40 37 38 42
19 12 20 16 12 13 10 12 14 13 13 12 11 12 13 14 14 16 18 20 22 26 30 33 34 36 38 39 42 45 47 48 49 49 48 48 48 47 46 45 41 40 38 36 38 38 39 33 32
12 16 16 12 9 8 7 11 12 12 13 11 11 13 13 14 15 17 18 20 23 26 29 31 33 36 37 40 42 45 47 48 48 48 48 47 46 44 43 43 39 35 36 31 32 32 32 31 28
11 9 11 12 7 6 5 9 10 11 11 10 9 11 12 14 15 16 18 20 23 25 27 30 34 37 39 41 43 46 47 48 49 49 48 46 43 41 39 38 35 32 28 25 25 25 28 26 29
8 11 15 6 7 6 7 6 7 7 7 7 7 9 13 15 16 17 20 21 23 24 28 32 35 37 39 41 43 45 47 47 48 47 45 44 42 40 39 36 31 27 23 20 19 19 21 23 25
6 6 10 9 8 9 8 7 6 4 3 4 5 7 11 15 18 20 20 20 22 25 28 32 34 37 40 43 46 47 48 48 46 44 42 42 42 40 38 34 29 23 18 15 14 14 15 17 22
2 7 11 8 9 6 9 10 10 8 5 1 2 5 9 14 19 21 19 21 23 26 29 32 34 37 40 43 45 47 46 46 44 42 41 42 41 41 38 33 26 20 15 13 11 11 10 12 16
5 6 9 4 10 7 8 15 17 14 10 4 2 3 7 13 19 20 19 21 23 26 30 31 33 37 41 42 45 45 44 44 43 42 43 43 41 38 36 32 25 17 13 12 9 9 6 7 12
7 9 7 5 8 4 7 6 8 13 11 7 5 3 7 12 17 21 21 21 23 27 29 30 33 37 40 43 44 45 47 47 45 43 42 41 39 37 36 32 24 17 13 10 9 8 5 3 8
7 10 6 6 4 4 8 6 4 8 12 8 5 4 8 12 17 21 21 21 23 26 27 30 33 36 39 42 43 45 45 45 44 42 41 40 38 36 34 32 25 17 12 9 8 8 6 3 4
5 10 8 5 5 4 6 9 6 6 6 6 4 5 9 12 17 21 21 20 23 24 27 30 33 36 39 41 42 44 45 46 45 42 40 39 37 35 33 32 27 19 13 10 8 7 6 4 3
13 14 3 2 2 3 3 8 9 7 7 6 5 7 9 13 16 19 19 19 21 24 27 31 33 36 39 41 41 44 45 47 47 44 40 39 37 35 33 33 30 23 16 11 8 6 6 4 4
18 14 4 3 2 1 6 9 1 2 4 5 7 8 11 13 15 17 15 17 20 24 28 32 33 36 38 39 41 43 46 47 46 43 39 38 36 34 32 32 30 25 19 14 11 8 5 3 3
20 14 12 1 4 4 6 9 9 6 6 5 8 9 11 12 14 15 14 17 21 25 29 31 33 35 37 39 41 43 46 47 46 41 37 35 33 32 31 31 30 27 22 16 10 7 5 3 3
14 15 8 9 2 4 5 8 3 2 1 5 6 9 9 11 13 12 13 17 21 25 29 31 32 35 37 38 41 44 46 47 45 40 35 33 32 31 31 30 30 28 24 18 13 9 6 3 3
22 17 11 8 5 3 1 3 2 2 4 5 6 7 8 10 11 10 13 18 21 25 28 30 32 33 35 37 40 43 46 46 44 39 35 33 32 30 31 31 31 29 26 21 16 10 7 5 3
24 21 19 6 5 7 2 6 2 3 6 6 7 7 7 9 8 9 13 18 21 24 27 29 31 32 34 37 40 43 45 45 43 39 35 32 31 30 30 31 31 29 27 23 17 12 7 5 5
Wind_Direction
315 301 295 268 246 101 103 115 142 123 115 104 90 136 138 111 7 300 305 320 323 320 317 315 313 309 304 298 296 293 289 286 276 265 256 255 256 253 254 253 254 252 250 241 237 242 243 238 237
318 307 288 276 249 149 109 125 143 145 132 118 153 203 341 329 343 326 329 320 323 322 320 321 317 313 308 302 298 294 289 285 280 278 267 259 255 252 252 253 254 253 252 249 240 233 236 237 234
300 286 280 280 239 135 142 136 137 133 112 131 166 260 283 310 324 333 325 329 330 330 328 323 321 320 318 314 306 294 289 285 279 276 274 271 260 256 249 250 252 254 252 250 246 238 230 233 236
288 278 273 213 121 122 139 136 143 150 86 110 44 273 305 339 348 342 342 343 340 333 330 329 329 327 325 321 316 311 304 293 287 283 275 270 265 257 255 247 247 246 247 249 250 248 235 226 231
284 272 249 150 124 133 143 144 149 149 160 46 355 11 345 348 340 348 349 343 335 332 332 333 333 332 331 328 325 321 315 309 299 289 283 280 273 266 259 255 245 244 242 245 245 247 241 230 224
298 271 180 146 132 136 142 136 131 128 174 316 12 333 334 339 352 354 349 343 339 338 338 339 340 340 341 340 337 333 328 320 309 303 295 284 278 274 267 263 256 246 243 240 245 242 241 236 228
305 279 190 152 147 146 152 147 158 165 182 289 301 325 334 349 3 359 357 350 343 341 346 349 350 351 350 349 348 344 338 332 325 314 304 297 289 279 276 269 264 256 245 240 238 237 236 240 232
290 267 166 159 154 151 152 155 158 150 255 281 310 351 21 47 31 15 0 345 345 349 351 353 354 354 353 352 351 350 347 343 337 329 320 309 298 291 283 280 269 262 257 243 243 234 234 230 235
287 241 177 175 162 170 150 163 158 153 139 124 116 125 97 74 43 19 359 352 354 359 1 2 1 359 358 355 353 352 349 345 341 337 330 322 311 299 288 282 278 272 262 254 240 242 228 228 224
266 214 168 158 157 161 153 154 151 122 122 124 106 96 77 60 43 23 6 5 5 5 5 4 0 359 359 355 353 351 348 345 339 335 331 326 319 309 298 288 280 277 273 264 252 240 246 222 217
255 167 146 132 140 129 136 147 130 133 125 107 95 86 75 64 49 34 23 11 9 8 5 4 2 359 357 353 352 348 346 342 339 336 332 328 322 315 306 292 281 273 274 270 262 248 239 240 231
150 128 142 132 125 124 132 135 133 128 122 110 99 91 83 72 57 38 24 15 8 5 6 4 1 358 354 352 349 346 343 341 339 337 334 330 325 318 311 302 288 275 268 269 264 259 249 238 233
132 135 130 122 118 117 121 127 128 124 112 103 96 85 74 64 47 32 19 10 8 7 5 3 359 356 353 350 347 345 343 342 340 337 333 330 326 321 314 305 295 283 270 265 265 263 259 257 238
136 130 121 111 113 114 141 137 135 125 109 95 86 77 65 53 40 26 14 10 7 6 5 3 357 353 351 349 347 345 345 344 341 337 333 329 325 320 314 306 295 284 275 266 264 260 265 262 247
123 131 118 118 115 120 126 135 140 126 107 93 81 68 56 43 30 18 10 8 7 7 6 360 351 349 350 350 348 348 347 345 342 337 333 329 324 320 314 306 298 285 278 273 268 265 262 265 256
139 137 129 135 116 121 144 156 151 132 114 92 71 59 48 35 22 13 6 6 7 7 0 350 347 349 351 351 351 350 349 346 341 337 334 331 329 328 321 313 307 294 287 278 272 269 266 264 257
154 162 155 144 138 141 143 174 169 143 115 94 68 55 42 27 15 5 5 5 4 359 352 344 347 350 352 352 352 352 349 345 342 339 338 337 337 334 328 319 312 302 295 285 277 275 268 262 257
178 163 161 159 168 177 177 187 179 147 129 106 70 41 30 18 5 359 5 1 356 350 346 344 346 350 351 352 354 352 350 346 344 343 341 340 339 335 330 325 316 309 300 290 282 279 274 266 255
129 156 164 159 172 185 188 214 224 207 165 105 58 29 17 9 358 357 0 352 346 345 341 341 343 349 351 353 354 352 350 349 347 345 343 342 340 339 336 331 324 318 307 293 282 279 274 269 261
180 169 165 168 186 201 222 241 249 244 239 203 31 10 3 1 356 353 349 341 340 341 339 338 345 350 353 355 354 352 350 348 347 346 346 346 344 342 340 336 334 326 313 297 292 288 286 276 261
223 211 194 202 202 226 246 264 252 245 245 244 269 335 347 352 353 347 340 339 337 337 335 337 347 353 354 354 354 350 350 349 350 351 349 348 346 344 343 342 340 333 319 306 310 298 297 272 269
191 187 215 256 197 223 235 289 262 235 238 239 247 306 333 340 344 344 341 336 333 333 334 343 352 355 353 355 352 351 351 351 353 353 351 348 347 348 347 347 347 337 325 319 313 317 323 292 272
182 189 210 171 201 272 246 261 253 229 230 225 248 300 317 327 339 342 334 329 330 332 341 349 355 355 353 355 352 351 351 353 355 354 351 349 350 351 351 350 352 345 331 321 320 331 337 329 272
193 174 166 196 254 262 228 224 268 230 200 217 249 289 301 323 335 336 327 325 331 339 347 353 355 354 353 355 352 351 353 355 356 354 350 350 351 354 355 354 357 355 340 326 321 334 343 332 302
183 170 126 249 243 233 210 220 242 246 262 254 286 290 303 318 329 329 320 324 333 345 352 356 356 354 354 353 351 353 356 356 356 354 351 351 353 356 358 359 359 360 352 336 326 332 351 348 315
185 196 188 226 223 306 226 236 243 259 265 269 283 297 302 315 323 315 315 325 342 349 355 358 355 355 353 351 353 355 357 357 356 355 352 353 355 358 360 1 2 2 356 347 341 341 350 348 327
196 207 221 264 272 296 234 268 284 269 264 273 284 292 299 313 315 312 317 336 348 349 357 357 355 354 352 352 355 357 359 358 356 355 353 354 356 0 2 3 4 5 3 357 349 338 344 8 352
207 210 197 212 211 249 252 272 247 344 293 286 288 285 302 314 311 315 323 344 346 350 356 356 354 353 352 354 357 359 360 358 357 356 356 357 360 4 5 5 7 8 8 4 359 351 346 20 11
202 202 202 205 219 234 285 248 319 15 321 289 292 297 312 311 312 314 333 344 343 349 355 355 353 353 353 355 359 1 360 358 358 359 360 1 3 7 7 8 9 11 12 11 7 4 0 14 19
217 222 215 218 229 225 212 272 158 336 315 312 306 318 324 314 315 322 339 338 342 349 354 355 352 352 355 358 1 2 0 359 360 2 3 5 7 8 10 11 12 14 15 14 13 14 14 5 11